Weather History for Houghton, MI

Change the Weather History Date:

Sunday, October 27, 2013

  Actual Average Record
Temperature  
Mean Temperature 37 °F -  
Max Temperature 41 °F 50 °F 73 °F (1955)
Min Temperature 32 °F 36 °F 21 °F (2003)
Degree Days  
Heating Degree Days 28    
Moisture  
Dew Point 29 °F    
Average Humidity 74    
Maximum Humidity 87    
Minimum Humidity 57    
Precipitation  
Precipitation 0.02 in - - ()
Sea Level Pressure  
Sea Level Pressure 29.91 in    
Wind  
Wind Speed 6 mph (NW)    
Max Wind Speed 21 mph    
Max Gust Speed 36 mph    
Visibility 9 miles    
Events Rain , Snow    
Averages and records for this station are not official NWS values.
T = Trace of Precipitation, MM = Missing Value Source: NWS Daily Summary

Daily Weather History Graph

Daily Weather History Graph

Search for Another Location

Airport:

Trip Planner

Search our weather history database for the weather conditions in past years. The results will help you decide how hot, cold, wet, or windy it might be!

Date:

Astronomy

Oct. 27, 2013 Rise Set
Actual Time 8:29 AM EDT 6:44 PM EDT
Civil Twilight 7:58 AM EDT 7:16 PM EDT
Nautical Twilight 7:22 AM EDT 7:52 PM EDT
Astronomical Twilight 6:47 AM EDT 8:27 PM EDT
Moon 1:00 AM EDT (10/27) 3:18 PM EDT (10/27)
Length of Visible Light 11h 18m
Length of Day
10h 14m
Last Quarter, 44% of the Moon is Illuminated
Oct 27
Last Quarter
Nov 3
New
Nov 10
First Quarter
Nov 17
Full
Nov 25
Last Quarter

Hourly Weather History & Observations

Time (EDT) Temp. Windchill Dew Point Humidity Pressure Visibility Wind Dir Wind Speed Gust Speed Precip Events Conditions
12:53 AM 35.1 °F - 28.0 °F 76% 29.95 in 10.0 mi Calm Calm - N/A   Overcast
1:53 AM 35.1 °F - 28.0 °F 76% 29.94 in 10.0 mi Calm Calm - N/A   Overcast
2:53 AM 35.1 °F - 28.0 °F 76% 29.93 in 10.0 mi Calm Calm - N/A   Overcast
3:53 AM 34.0 °F - 27.0 °F 75% 29.91 in 10.0 mi Calm Calm - N/A   Overcast
4:53 AM 35.1 °F - 26.1 °F 70% 29.88 in 10.0 mi Calm Calm - N/A   Overcast
5:53 AM 36.0 °F 30.3 °F 26.1 °F 67% 29.87 in 10.0 mi SW 6.9 mph - N/A   Overcast
6:53 AM 36.0 °F 31.1 °F 28.9 °F 76% 29.86 in 9.0 mi West 5.8 mph - 0.00 in   Overcast
7:49 AM 35.6 °F 31.7 °F 28.4 °F 75% 29.81 in 4.0 mi SW 4.6 mph - 0.00 in Snow Light Snow
7:53 AM 35.1 °F 32.2 °F 28.9 °F 78% 29.84 in 7.0 mi SW 3.5 mph - 0.00 in Snow Light Snow
8:10 AM 35.6 °F 31.7 °F 28.4 °F 75% 29.80 in 10.0 mi SW 4.6 mph - 0.00 in   Overcast
8:20 AM 35.6 °F 30.7 °F 28.4 °F 75% 29.80 in 5.0 mi SW 5.8 mph - 0.00 in Snow Light Snow
8:53 AM 35.1 °F - 30.0 °F 82% 29.83 in 10.0 mi Calm Calm - 0.01 in   Overcast
9:01 AM 35.6 °F - 30.2 °F 81% 29.80 in 10.0 mi Calm Calm - N/A   Overcast
9:53 AM 36.0 °F 31.1 °F 30.0 °F 79% 29.84 in 10.0 mi SW 5.8 mph - N/A   Overcast
10:53 AM 37.0 °F 31.0 °F 28.0 °F 70% 29.83 in 10.0 mi WSW 8.1 mph - N/A   Overcast
11:38 AM 37.4 °F 30.8 °F 26.6 °F 65% 29.80 in 10.0 mi WSW 9.2 mph - N/A   Overcast
11:53 AM 37.0 °F 31.0 °F 28.0 °F 70% 29.83 in 10.0 mi WSW 8.1 mph - N/A   Overcast
12:53 PM 39.0 °F 32.3 °F 28.0 °F 65% 29.82 in 10.0 mi WSW 10.4 mph - N/A   Overcast
1:01 PM 39.2 °F 33.0 °F 28.4 °F 65% 29.78 in 10.0 mi WSW 9.2 mph - N/A   Overcast
1:53 PM 41.0 °F 38.0 °F 27.0 °F 57% 29.80 in 10.0 mi WSW 4.6 mph - N/A   Overcast
2:53 PM 39.9 °F 35.1 °F 28.9 °F 65% 29.79 in 10.0 mi SSW 6.9 mph - N/A   Overcast
3:53 PM 41.0 °F 39.0 °F 28.0 °F 60% 29.81 in 10.0 mi West 3.5 mph - N/A   Overcast
4:53 PM 39.9 °F 35.8 °F 28.9 °F 65% 29.84 in 10.0 mi NW 5.8 mph - N/A   Overcast
5:22 PM 39.2 °F 33.0 °F 30.2 °F 70% 29.83 in 10.0 mi NW 9.2 mph - N/A   Overcast
5:38 PM 39.2 °F 33.0 °F 30.2 °F 70% 29.84 in 10.0 mi NW 9.2 mph - N/A   Overcast
5:53 PM 39.9 °F 34.5 °F 30.9 °F 70% 29.88 in 10.0 mi NW 8.1 mph - N/A   Overcast
6:12 PM 39.2 °F 32.5 °F 33.8 °F 81% 29.87 in 10.0 mi North 10.4 mph - 0.00 in Rain Light Rain
6:51 PM 37.4 °F 30.8 °F 33.8 °F 87% 29.90 in 8.0 mi North 9.2 mph - 0.00 in Rain Light Rain
6:53 PM 37.9 °F 32.1 °F 33.1 °F 83% 29.94 in 7.0 mi North 8.1 mph - 0.00 in Rain Light Rain
7:00 PM 37.4 °F 31.4 °F 33.8 °F 87% 29.91 in 5.0 mi North 8.1 mph - 0.00 in Rain Light Rain
7:19 PM 37.4 °F 30.8 °F 33.8 °F 87% 29.92 in 4.0 mi North 9.2 mph - 0.00 in Snow Light Snow
7:33 PM 37.4 °F 31.4 °F 33.8 °F 87% 29.93 in 10.0 mi North 8.1 mph - 0.00 in Rain Light Rain
7:53 PM 37.9 °F 32.1 °F 33.1 °F 83% 29.98 in 10.0 mi North 8.1 mph - 0.00 in Rain Light Rain
8:06 PM 35.6 °F 25.2 °F 32.0 °F 87% 29.96 in 9.0 mi North 18.4 mph 33.4 mph 0.01 in Snow Light Snow
8:53 PM 36.0 °F 26.7 °F 28.9 °F 76% 30.04 in 8.0 mi North 15.0 mph 23.0 mph 0.01 in Snow Light Snow
9:27 PM 35.6 °F 25.2 °F 28.4 °F 75% 30.04 in 6.0 mi North 18.4 mph 28.8 mph 0.00 in Snow Light Snow
9:53 PM 35.1 °F 24.1 °F 26.1 °F 70% 30.09 in 9.0 mi NNE 19.6 mph 26.5 mph 0.00 in Snow Light Snow
10:02 PM 35.6 °F 26.2 °F 26.6 °F 70% 30.06 in 10.0 mi NNE 15.0 mph 25.3 mph N/A   Overcast
10:20 PM 33.8 °F 22.2 °F 26.6 °F 75% 30.08 in 3.0 mi NNE 20.7 mph 33.4 mph 0.00 in Snow Light Snow
10:38 PM 33.8 °F 23.9 °F 26.6 °F 75% 30.10 in 9.0 mi NNE 15.0 mph 21.9 mph 0.00 in   Overcast
10:46 PM 33.8 °F 23.5 °F 26.6 °F 75% 30.11 in 5.0 mi North 16.1 mph 26.5 mph 0.00 in Snow Light Snow
10:53 PM 33.1 °F 21.2 °F 27.0 °F 78% 30.16 in 9.0 mi North 20.7 mph 35.7 mph 0.00 in Snow Light Snow
11:53 PM 32.0 °F 21.2 °F 21.0 °F 64% 30.20 in 10.0 mi North 16.1 mph 28.8 mph 0.00 in   Overcast